BTK7109 WIHH-WIEE

Flight info

Callsign BTK7109
Flight time 1h 29m
Altitude 34000
Route RIMTI M766 TKG W11 NONAP
Aircraft A320/M-SDE3FGHIRWY/LB1

Departure

Time 2026-05-06 10:37
Airport Halim Perdanakusuma International Airport (WIHH)

Arrival

Time 2026-05-06 12:06
Airport Minangkabau International Airport (WIEE)
Time Latitude Longitude Altitude Speed Heading
2026-05-06 10:20 -6.26582 106.88661 89 ft 0 kts 335°
2026-05-06 10:30 -6.26584 106.88662 89 ft 1 kts 335°
2026-05-06 10:30 -6.26598 106.88668 89 ft 2 kts 335°
2026-05-06 10:30 -6.26611 106.88674 88 ft 2 kts 335°
2026-05-06 10:31 -6.26624 106.88680 88 ft 1 kts 335°
2026-05-06 10:31 -6.26633 106.88685 88 ft 2 kts 313°
2026-05-06 10:31 -6.26639 106.88699 88 ft 2 kts 268°
2026-05-06 10:31 -6.26638 106.88707 88 ft 1 kts 244°
2026-05-06 10:32 -6.26635 106.88712 88 ft 0 kts 245°
2026-05-06 10:33 -6.26637 106.88708 88 ft 2 kts 245°
2026-05-06 10:33 -6.26650 106.88675 88 ft 7 kts 248°
2026-05-06 10:34 -6.26665 106.88622 88 ft 9 kts 243°
2026-05-06 10:34 -6.26699 106.88552 90 ft 12 kts 243°
2026-05-06 10:34 -6.26762 106.88483 90 ft 15 kts 184°
2026-05-06 10:34 -6.26873 106.88528 91 ft 19 kts 157°
2026-05-06 10:35 -6.26965 106.88469 90 ft 18 kts 249°
2026-05-06 10:35 -6.27012 106.88349 91 ft 18 kts 240°
2026-05-06 10:35 -6.27069 106.88237 91 ft 17 kts 247°
2026-05-06 10:35 -6.27116 106.88121 91 ft 17 kts 248°
2026-05-06 10:36 -6.27157 106.88004 91 ft 17 kts 260°
2026-05-06 10:36 -6.27181 106.87897 93 ft 11 kts 206°
2026-05-06 10:36 -6.27196 106.87945 92 ft 11 kts 61°
2026-05-06 10:36 -6.27162 106.88021 91 ft 12 kts 65°
2026-05-06 10:37 -6.27057 106.88242 91 ft 67 kts 65°
2026-05-06 10:37 -6.26772 106.88872 88 ft 127 kts 64°
2026-05-06 10:37 -6.26322 106.89810 228 ft 160 kts 63°
2026-05-06 10:37 -6.25895 106.90838 727 ft 163 kts 66°
2026-05-06 10:38 -6.25509 106.91838 1269 ft 166 kts 73°
2026-05-06 10:38 -6.25592 106.92985 1808 ft 173 kts 113°
2026-05-06 10:38 -6.26241 106.94045 2162 ft 185 kts 123°
2026-05-06 10:38 -6.27030 106.95146 2459 ft 200 kts 123°
2026-05-06 10:39 -6.27847 106.96341 2762 ft 215 kts 122°
2026-05-06 10:39 -6.28688 106.97649 2966 ft 237 kts 120°
2026-05-06 10:39 -6.29593 106.99115 3350 ft 254 kts 120°
2026-05-06 10:39 -6.30531 107.00666 3757 ft 268 kts 120°
2026-05-06 10:40 -6.31502 107.02261 3980 ft 272 kts 123°
2026-05-06 10:40 -6.32922 107.03530 4374 ft 285 kts 156°
2026-05-06 10:40 -6.34830 107.03799 5266 ft 283 kts 187°
2026-05-06 10:40 -6.36647 107.03133 6076 ft 285 kts 214°
2026-05-06 10:41 -6.37991 107.01685 6810 ft 289 kts 242°
2026-05-06 10:41 -6.38531 106.99771 7569 ft 291 kts 266°
2026-05-06 10:41 -6.38629 106.97771 8348 ft 293 kts 269°
2026-05-06 10:41 -6.38690 106.95751 9076 ft 297 kts 268°
2026-05-06 10:42 -6.38771 106.93692 9825 ft 300 kts 268°
2026-05-06 10:42 -6.38874 106.91609 10521 ft 304 kts 267°
2026-05-06 10:42 -6.38996 106.89448 10887 ft 321 kts 267°
2026-05-06 10:42 -6.39127 106.87262 11185 ft 337 kts 266°
2026-05-06 10:43 -6.39275 106.84860 11485 ft 354 kts 266°
2026-05-06 10:43 -6.39429 106.82378 11767 ft 370 kts 266°
2026-05-06 10:43 -6.39575 106.79767 12233 ft 379 kts 268°
2026-05-06 10:44 -6.39561 106.74491 13550 ft 384 kts 273°
2026-05-06 10:44 -6.39069 106.72026 14069 ft 389 kts 293°
2026-05-06 10:44 -6.37686 106.69855 14677 ft 390 kts 310°
2026-05-06 10:45 -6.34073 106.65859 15888 ft 397 kts 313°
2026-05-06 10:45 -6.32206 106.63779 16484 ft 400 kts 312°
2026-05-06 10:45 -6.30381 106.61695 17072 ft 403 kts 311°
2026-05-06 10:45 -6.28526 106.59541 17658 ft 407 kts 311°
2026-05-06 10:46 -6.26672 106.57366 18232 ft 410 kts 311°
2026-05-06 10:46 -6.24829 106.55194 18792 ft 414 kts 311°
2026-05-06 10:46 -6.22943 106.52966 19350 ft 417 kts 311°
2026-05-06 10:46 -6.21062 106.50740 19890 ft 421 kts 311°
2026-05-06 10:47 -6.19180 106.48514 20418 ft 424 kts 311°
2026-05-06 10:47 -6.17259 106.46241 20934 ft 427 kts 311°
2026-05-06 10:47 -6.15333 106.43961 21433 ft 430 kts 311°
2026-05-06 10:47 -6.13391 106.41663 21922 ft 433 kts 311°
2026-05-06 10:48 -6.11418 106.39329 22402 ft 437 kts 311°
2026-05-06 10:48 -6.09459 106.37008 22863 ft 440 kts 310°
2026-05-06 10:48 -6.07528 106.34608 23315 ft 443 kts 309°
2026-05-06 10:48 -6.05615 106.32165 23752 ft 446 kts 309°
2026-05-06 10:49 -6.03699 106.29708 24173 ft 449 kts 309°
2026-05-06 10:49 -6.01779 106.27249 24578 ft 451 kts 309°
2026-05-06 10:49 -5.99871 106.24812 24965 ft 454 kts 309°
2026-05-06 10:49 -5.97900 106.22297 25354 ft 456 kts 309°
2026-05-06 10:50 -5.95922 106.19778 25722 ft 459 kts 309°
2026-05-06 10:50 -5.93932 106.17245 26076 ft 462 kts 309°
2026-05-06 10:50 -5.91946 106.14717 26418 ft 464 kts 309°
2026-05-06 10:50 -5.89940 106.12167 26748 ft 466 kts 309°
2026-05-06 10:51 -5.87917 106.09607 27061 ft 468 kts 309°
2026-05-06 10:51 -5.85895 106.07056 27358 ft 470 kts 309°
2026-05-06 10:51 -5.83874 106.04496 27643 ft 473 kts 309°
2026-05-06 10:51 -5.81815 106.01905 27918 ft 474 kts 310°
2026-05-06 10:52 -5.79649 105.99403 28250 ft 474 kts 314°
2026-05-06 10:52 -5.77353 105.97022 28652 ft 472 kts 316°
2026-05-06 10:52 -5.75014 105.94730 29049 ft 471 kts 317°
2026-05-06 10:52 -5.72664 105.92448 29424 ft 470 kts 317°
2026-05-06 10:53 -5.70311 105.90166 29786 ft 469 kts 317°
2026-05-06 10:53 -5.67985 105.87910 30141 ft 469 kts 317°
2026-05-06 10:53 -5.65635 105.85626 30497 ft 468 kts 317°
2026-05-06 10:53 -5.63300 105.83354 30847 ft 467 kts 317°
2026-05-06 10:54 -5.60968 105.81084 31191 ft 467 kts 317°
2026-05-06 10:54 -5.58673 105.78850 31520 ft 466 kts 317°
2026-05-06 10:54 -5.56333 105.76572 31845 ft 465 kts 317°
2026-05-06 10:54 -5.54037 105.74338 32141 ft 465 kts 317°
2026-05-06 10:55 -5.51692 105.72056 32389 ft 466 kts 317°
2026-05-06 10:55 -5.49362 105.69778 32603 ft 467 kts 316°
2026-05-06 10:55 -5.47154 105.67409 32809 ft 469 kts 312°
2026-05-06 10:55 -5.45103 105.64886 33015 ft 470 kts 308°
2026-05-06 10:56 -5.43211 105.62189 33214 ft 472 kts 304°
2026-05-06 10:56 -5.41509 105.59354 33403 ft 473 kts 300°
2026-05-06 10:56 -5.40018 105.56414 33582 ft 474 kts 295°
2026-05-06 10:56 -5.38735 105.53373 33748 ft 476 kts 292°
2026-05-06 10:57 -5.37562 105.50263 33779 ft 477 kts 291°
2026-05-06 10:57 -5.35255 105.44016 33790 ft 477 kts 291°
2026-05-06 10:58 -5.32930 105.37775 33792 ft 477 kts 291°
2026-05-06 10:58 -5.30600 105.31552 33792 ft 477 kts 291°
2026-05-06 10:59 -5.28143 105.25378 33792 ft 477 kts 295°
2026-05-06 10:59 -5.25067 105.19517 33793 ft 476 kts 302°
2026-05-06 11:00 -5.21351 105.14085 33793 ft 475 kts 309°
2026-05-06 11:00 -5.17094 105.09037 33793 ft 474 kts 313°
2026-05-06 11:01 -5.12746 105.04072 33793 ft 474 kts 313°
2026-05-06 11:01 -5.08404 104.99102 33793 ft 474 kts 313°
2026-05-06 11:02 -5.04076 104.94136 33793 ft 474 kts 313°
2026-05-06 11:02 -4.99728 104.89143 33793 ft 472 kts 313°
2026-05-06 11:03 -4.95406 104.84183 33793 ft 471 kts 312°
2026-05-06 11:03 -4.91100 104.79240 33793 ft 470 kts 312°
2026-05-06 11:04 -4.86814 104.74341 33793 ft 470 kts 313°
2026-05-06 11:04 -4.82473 104.69387 33793 ft 470 kts 312°
2026-05-06 11:05 -4.78161 104.64447 33793 ft 470 kts 312°
2026-05-06 11:05 -4.73875 104.59530 33793 ft 470 kts 312°
2026-05-06 11:06 -4.69579 104.54603 33792 ft 470 kts 313°
2026-05-06 11:06 -4.65210 104.49757 33792 ft 470 kts 314°
2026-05-06 11:07 -4.60798 104.44922 33793 ft 470 kts 314°
2026-05-06 11:07 -4.56395 104.40086 33793 ft 470 kts 314°
2026-05-06 11:08 -4.52011 104.35263 33793 ft 470 kts 314°
2026-05-06 11:08 -4.47654 104.30445 33792 ft 470 kts 313°
2026-05-06 11:09 -4.43299 104.25629 33793 ft 470 kts 314°
2026-05-06 11:09 -4.38946 104.20830 33793 ft 470 kts 314°
2026-05-06 11:10 -4.34567 104.16010 33792 ft 470 kts 314°
2026-05-06 11:10 -4.30171 104.11176 33793 ft 470 kts 314°
2026-05-06 11:11 -4.25816 104.06386 33793 ft 470 kts 314°
2026-05-06 11:11 -4.21460 104.01597 33793 ft 470 kts 314°
2026-05-06 11:12 -4.17084 103.96788 33793 ft 470 kts 314°
2026-05-06 11:12 -4.12732 103.92004 33793 ft 470 kts 314°
2026-05-06 11:13 -4.08368 103.87209 33793 ft 470 kts 314°
2026-05-06 11:13 -4.04034 103.82448 33793 ft 470 kts 314°
2026-05-06 11:14 -3.99809 103.77807 33793 ft 470 kts 314°
2026-05-06 11:14 -3.95438 103.73007 33793 ft 470 kts 314°
2026-05-06 11:15 -3.91059 103.68198 33793 ft 470 kts 314°
2026-05-06 11:15 -3.86661 103.63390 33793 ft 470 kts 314°
2026-05-06 11:16 -3.82310 103.58643 33793 ft 470 kts 314°
2026-05-06 11:16 -3.77901 103.53816 33793 ft 470 kts 314°
2026-05-06 11:17 -3.73500 103.48990 33793 ft 470 kts 314°
2026-05-06 11:17 -3.69103 103.44167 33793 ft 470 kts 314°
2026-05-06 11:18 -3.64701 103.39338 33793 ft 470 kts 314°
2026-05-06 11:18 -3.60406 103.34627 33792 ft 470 kts 314°
2026-05-06 11:19 -3.56032 103.29802 33792 ft 470 kts 313°
2026-05-06 11:19 -3.51747 103.25082 33792 ft 470 kts 314°
2026-05-06 11:20 -3.47449 103.20363 33793 ft 470 kts 314°
2026-05-06 11:20 -3.43088 103.15582 33793 ft 470 kts 314°
2026-05-06 11:21 -3.38694 103.10767 33793 ft 470 kts 313°
2026-05-06 11:21 -3.34317 103.05971 33792 ft 470 kts 313°
2026-05-06 11:22 -3.29895 103.01126 33793 ft 470 kts 313°
2026-05-06 11:22 -3.25502 102.96313 33793 ft 470 kts 313°
2026-05-06 11:23 -3.21119 102.91511 33793 ft 470 kts 313°
2026-05-06 11:23 -3.16702 102.86672 33793 ft 470 kts 313°
2026-05-06 11:24 -3.12323 102.81876 33792 ft 469 kts 313°
2026-05-06 11:24 -3.07897 102.77030 33793 ft 470 kts 313°
2026-05-06 11:25 -3.03498 102.72214 33793 ft 470 kts 313°
2026-05-06 11:25 -2.99211 102.67522 33792 ft 470 kts 313°
2026-05-06 11:26 -2.94798 102.62691 33792 ft 471 kts 313°
2026-05-06 11:26 -2.90378 102.57855 33792 ft 473 kts 313°
2026-05-06 11:27 -2.85912 102.52995 33792 ft 474 kts 313°
2026-05-06 11:27 -2.81470 102.48158 33793 ft 474 kts 313°
2026-05-06 11:28 -2.77005 102.43281 33792 ft 474 kts 313°
2026-05-06 11:28 -2.72546 102.38404 33793 ft 474 kts 313°
2026-05-06 11:29 -2.68106 102.33543 33792 ft 474 kts 313°
2026-05-06 11:29 -2.63694 102.28688 33793 ft 474 kts 313°
2026-05-06 11:30 -2.59266 102.23839 33792 ft 474 kts 313°
2026-05-06 11:30 -2.54950 102.18807 33792 ft 475 kts 306°
2026-05-06 11:31 -2.51603 102.13129 33795 ft 475 kts 295°
2026-05-06 11:31 -2.49450 102.06946 33800 ft 475 kts 283°
2026-05-06 11:32 -2.48365 102.00429 33807 ft 475 kts 277°
2026-05-06 11:32 -2.47502 101.93880 33812 ft 475 kts 277°
2026-05-06 11:33 -2.46630 101.87400 33816 ft 475 kts 277°
2026-05-06 11:33 -2.45734 101.80874 33818 ft 475 kts 277°
2026-05-06 11:34 -2.44826 101.74300 33819 ft 475 kts 278°
2026-05-06 11:34 -2.43924 101.67789 33819 ft 475 kts 278°
2026-05-06 11:35 -2.43023 101.61282 33819 ft 475 kts 278°
2026-05-06 11:35 -2.42118 101.54755 33819 ft 475 kts 278°
2026-05-06 11:36 -2.41212 101.48228 33819 ft 475 kts 278°
2026-05-06 11:36 -2.40304 101.41689 33819 ft 475 kts 278°
2026-05-06 11:37 -2.39396 101.35157 33819 ft 475 kts 278°
2026-05-06 11:37 -2.38257 101.28725 33819 ft 475 kts 284°
2026-05-06 11:38 -2.36129 101.22465 33820 ft 475 kts 294°
2026-05-06 11:38 -2.33002 101.16645 33820 ft 474 kts 303°
2026-05-06 11:39 -2.29156 101.11302 33820 ft 474 kts 307°
2026-05-06 11:39 -2.25188 101.05997 33819 ft 474 kts 307°
2026-05-06 11:39 -2.23244 101.03389 33681 ft 475 kts 307°
2026-05-06 11:40 -2.21284 101.00751 33420 ft 473 kts 307°
2026-05-06 11:40 -2.19304 100.98082 32960 ft 471 kts 307°
2026-05-06 11:40 -2.17362 100.95463 32339 ft 469 kts 307°
2026-05-06 11:40 -2.15453 100.92886 31636 ft 469 kts 307°
2026-05-06 11:41 -2.13506 100.90258 30849 ft 470 kts 307°
2026-05-06 11:41 -2.11550 100.87616 30011 ft 472 kts 306°
2026-05-06 11:41 -2.09645 100.85044 29175 ft 474 kts 306°
2026-05-06 11:41 -2.07645 100.82344 28276 ft 476 kts 306°
2026-05-06 11:42 -2.05687 100.79700 27423 ft 477 kts 306°
2026-05-06 11:42 -2.03731 100.77058 26891 ft 470 kts 306°
2026-05-06 11:42 -2.01805 100.74458 26366 ft 464 kts 306°
2026-05-06 11:42 -1.99966 100.71975 25914 ft 458 kts 306°
2026-05-06 11:43 -1.98071 100.69418 25443 ft 456 kts 306°
2026-05-06 11:43 -1.96200 100.66894 24881 ft 453 kts 306°
2026-05-06 11:43 -1.94320 100.64358 24247 ft 450 kts 306°
2026-05-06 11:44 -1.90610 100.59397 23159 ft 442 kts 308°
2026-05-06 11:44 -1.88558 100.57163 22717 ft 438 kts 315°
2026-05-06 11:44 -1.86228 100.55189 22239 ft 436 kts 322°
2026-05-06 11:44 -1.83744 100.53484 21772 ft 432 kts 326°
2026-05-06 11:45 -1.81248 100.51867 21303 ft 428 kts 326°
2026-05-06 11:45 -1.78786 100.50285 20813 ft 425 kts 326°
2026-05-06 11:45 -1.76330 100.48701 20311 ft 421 kts 326°
2026-05-06 11:45 -1.73889 100.47119 19806 ft 417 kts 326°
2026-05-06 11:46 -1.71497 100.45562 19311 ft 413 kts 326°
2026-05-06 11:46 -1.69092 100.43994 18807 ft 409 kts 326°
2026-05-06 11:46 -1.66726 100.42450 18306 ft 406 kts 326°
2026-05-06 11:46 -1.64387 100.40921 17806 ft 402 kts 326°
2026-05-06 11:47 -1.62048 100.39392 17282 ft 399 kts 326°
2026-05-06 11:47 -1.59749 100.37890 16775 ft 395 kts 325°
2026-05-06 11:47 -1.57465 100.36397 16276 ft 392 kts 325°
2026-05-06 11:47 -1.55191 100.34910 15778 ft 388 kts 325°
2026-05-06 11:48 -1.52960 100.33443 15289 ft 385 kts 325°
2026-05-06 11:48 -1.50722 100.31966 14793 ft 382 kts 325°
2026-05-06 11:48 -1.48518 100.30516 14304 ft 378 kts 325°
2026-05-06 11:48 -1.46341 100.29087 13796 ft 376 kts 325°
2026-05-06 11:49 -1.44145 100.27650 13293 ft 373 kts 325°
2026-05-06 11:49 -1.42003 100.26248 12809 ft 369 kts 325°
2026-05-06 11:49 -1.39880 100.24860 12327 ft 366 kts 325°
2026-05-06 11:49 -1.37749 100.23468 11844 ft 363 kts 326°
2026-05-06 11:50 -1.35659 100.22102 11368 ft 360 kts 326°
2026-05-06 11:50 -1.33570 100.20737 10917 ft 356 kts 326°
2026-05-06 11:50 -1.31512 100.19392 10521 ft 350 kts 326°
2026-05-06 11:50 -1.29517 100.18091 10408 ft 335 kts 326°
2026-05-06 11:51 -1.27606 100.16844 10294 ft 321 kts 326°
2026-05-06 11:51 -1.25793 100.15660 10191 ft 307 kts 326°
2026-05-06 11:51 -1.24044 100.14519 10102 ft 294 kts 326°
2026-05-06 11:51 -1.22359 100.13418 10010 ft 282 kts 326°
2026-05-06 11:52 -1.20714 100.12356 9601 ft 283 kts 327°
2026-05-06 11:52 -1.19007 100.11401 9181 ft 284 kts 332°
2026-05-06 11:52 -1.17234 100.10546 8821 ft 282 kts 333°
2026-05-06 11:52 -1.15467 100.09716 8490 ft 280 kts 334°
2026-05-06 11:53 -1.13721 100.08897 8174 ft 276 kts 334°
2026-05-06 11:53 -1.11890 100.08380 7824 ft 276 kts 357°
2026-05-06 11:53 -1.10005 100.08751 7500 ft 276 kts 25°
2026-05-06 11:53 -1.08514 100.09930 7180 ft 276 kts 52°
2026-05-06 11:54 -1.07571 100.11601 6885 ft 274 kts 63°
2026-05-06 11:54 -1.06790 100.13306 6592 ft 272 kts 64°
2026-05-06 11:54 -1.06008 100.15019 6299 ft 269 kts 64°
2026-05-06 11:54 -1.05217 100.16713 6006 ft 267 kts 63°
2026-05-06 11:55 -1.04439 100.18348 5903 ft 255 kts 63°
2026-05-06 11:55 -1.03690 100.19910 5882 ft 241 kts 63°
2026-05-06 11:55 -1.02971 100.21404 5858 ft 238 kts 64°
2026-05-06 11:55 -1.02587 100.23000 5791 ft 241 kts 96°
2026-05-06 11:56 -1.03187 100.24551 5697 ft 242 kts 130°
2026-05-06 11:56 -1.04015 100.25288 5614 ft 242 kts 152°
2026-05-06 11:56 -1.04391 100.25481 5581 ft 241 kts 160°
2026-05-06 11:56 -1.06037 100.25694 5440 ft 238 kts 193°
2026-05-06 11:57 -1.07511 100.25032 5300 ft 235 kts 223°
2026-05-06 11:57 -1.08475 100.23744 5176 ft 231 kts 245°
2026-05-06 11:57 -1.09157 100.22313 5105 ft 231 kts 247°
2026-05-06 11:57 -1.09690 100.20790 5057 ft 229 kts 268°
2026-05-06 11:58 -1.09338 100.19291 5058 ft 227 kts 303°
2026-05-06 11:58 -1.08232 100.18179 5057 ft 227 kts 331°
2026-05-06 11:58 -1.06715 100.17730 5055 ft 228 kts 359°
2026-05-06 11:58 -1.05176 100.18069 5052 ft 231 kts 28°
2026-05-06 11:59 -1.03992 100.19134 5049 ft 234 kts 57°
2026-05-06 11:59 -1.03245 100.20568 5053 ft 235 kts 64°
2026-05-06 11:59 -1.02570 100.22086 4944 ft 247 kts 66°
2026-05-06 11:59 -1.01983 100.23721 4636 ft 251 kts 72°
2026-05-06 12:00 -1.01549 100.25420 4349 ft 252 kts 77°
2026-05-06 12:00 -1.01258 100.27153 4068 ft 251 kts 79°
2026-05-06 12:00 -1.00924 100.28858 3791 ft 250 kts 75°
2026-05-06 12:00 -1.00510 100.30518 3519 ft 249 kts 74°
2026-05-06 12:01 -1.00070 100.32191 3313 ft 244 kts 73°
2026-05-06 12:01 -0.99656 100.33735 3282 ft 230 kts 71°
2026-05-06 12:01 -0.98908 100.35085 3147 ft 224 kts 41°
2026-05-06 12:01 -0.97590 100.35819 3015 ft 215 kts 10°
2026-05-06 12:02 -0.96126 100.35864 2900 ft 204 kts 349°
2026-05-06 12:02 -0.94789 100.35480 2817 ft 200 kts 338°
2026-05-06 12:02 -0.93520 100.34934 2732 ft 200 kts 335°
2026-05-06 12:02 -0.92291 100.34357 2750 ft 185 kts 335°
2026-05-06 12:03 -0.91169 100.33829 2480 ft 175 kts 335°
2026-05-06 12:03 -0.90102 100.33334 2268 ft 160 kts 335°
2026-05-06 12:03 -0.89132 100.32890 2016 ft 146 kts 336°
2026-05-06 12:03 -0.88236 100.32483 1797 ft 137 kts 336°
2026-05-06 12:04 -0.87365 100.32085 1624 ft 137 kts 335°
2026-05-06 12:04 -0.86505 100.31689 1455 ft 137 kts 335°
2026-05-06 12:04 -0.85647 100.31293 1285 ft 136 kts 335°
2026-05-06 12:04 -0.84783 100.30894 1109 ft 136 kts 335°
2026-05-06 12:05 -0.83925 100.30498 930 ft 136 kts 335°
2026-05-06 12:05 -0.83071 100.30103 748 ft 135 kts 335°
2026-05-06 12:05 -0.82205 100.29704 562 ft 135 kts 336°
2026-05-06 12:05 -0.81359 100.29313 382 ft 135 kts 336°
2026-05-06 12:06 -0.80506 100.28919 200 ft 134 kts 336°
2026-05-06 12:06 -0.79659 100.28538 42 ft 132 kts 336°
2026-05-06 12:06 -0.78927 100.28199 36 ft 94 kts 334°
2026-05-06 12:06 -0.78479 100.27992 45 ft 48 kts 335°
2026-05-06 12:07 -0.78265 100.27902 47 ft 19 kts 351°
2026-05-06 12:07 -0.78175 100.27863 48 ft 14 kts 247°
2026-05-06 12:07 -0.78267 100.27876 47 ft 15 kts 155°
2026-05-06 12:07 -0.78369 100.27927 45 ft 16 kts 151°
2026-05-06 12:08 -0.78474 100.27984 45 ft 17 kts 152°
2026-05-06 12:08 -0.78576 100.28059 41 ft 19 kts 103°
2026-05-06 12:08 -0.78528 100.28182 41 ft 19 kts 63°
2026-05-06 12:08 -0.78477 100.28300 40 ft 15 kts 91°
2026-05-06 12:09 -0.78553 100.28374 38 ft 16 kts 156°
2026-05-06 12:09 -0.78609 100.28421 38 ft 6 kts 49°
2026-05-06 12:09 -0.78594 100.28454 37 ft 5 kts 66°
2026-05-06 12:09 -0.78581 100.28481 37 ft 0 kts 65°